This demonstration page uses our WeatherBlox Daily Observations layout. Learn more.

Left ArrowRight Arrow

Hourly Observations for September 18, 2018

Temp ( °F °C ) Dew Point ( °F °C ) Humidity (%) Winds ( mph kmh ) Pressure ( in mb ) Visibility ( mi km ) Precip ( " mm )
12:53 am 00:53 Clear 71 21.7 67 19.4 87 87 SSE 5 7 29.91 1013 10 16 0.00 0.00
1:53 am 01:53 Clear 70 21.1 67 19.4 90 90 SE 6 9 29.91 1013 10 16 0.00 0.00
2:53 am 02:53 Clear 69 20.6 67 19.4 93 93 ESE 9 15 29.90 1013 9 14 0.00 0.00
3:53 am 03:53 Clear 69 20.6 67 19.4 93 93 ESE 9 15 29.89 1012 10 16 0.00 0.00
4:53 am 04:53 Clear 69 20.6 67 19.4 93 93 ESE 9 15 29.88 1012 8 13 0.00 0.00
5:50 am 05:50 Mostly Clear 68 20 66 19 94 94 ESE 9 15 29.88 1012 7 11 0.00 0.00
5:53 am 05:53 Clear 68 20 67 19.4 96 96 ESE 9 15 29.89 1012 7 11 0.00 0.00
6:07 am 06:07 Mostly Clear 69 20.6 67 19.4 93 93 ESE 9 15 29.88 1012 7 11 0.00 0.00
6:32 am 06:32 Mostly Cloudy with Mist and Fog 68 20 67 19.4 96 96 ESE 8 13 29.88 1012 6 10 0.00 0.00
6:45 am 06:45 Partly Cloudy with Mist and Fog 68 20 67 19.4 96 96 ESE 8 13 29.91 1013 6 10 0.00 0.00
6:53 am 06:53 Mostly Clear with Mist and Fog 68 20 67 19.4 96 96 ESE 9 15 29.89 1012 6 10 0.00 0.00
7:53 am 07:53 Sunny with Mist and Fog 68 20 68 20 100 100 ESE 9 15 29.90 1013 5 8 0.00 0.00
8:37 am 08:37 Partly Cloudy with Mist and Fog 70 21.1 68 20 93 93 ESE 9 15 29.91 1013 5 8 0.00 0.00
8:53 am 08:53 Partly Cloudy 71 21.7 68 20 90 90 ESE 9 15 29.91 1013 7 11 0.00 0.00
9:19 am 09:19 Mostly Cloudy 72 22.2 69 20.6 91 91 SE 12 19 29.91 1013 8 13 0.00 0.00
9:45 am 09:45 Mostly Cloudy 74 23.3 69 20.6 85 85 SE 15 24 29.88 1012 10 16 0.00 0.00
9:53 am 09:53 Mostly Cloudy 74 23.3 68 20 82 82 SE 16 26 29.92 1013 10 16 0.00 0.00
10:29 am 10:29 Mostly Cloudy 76 24.4 68 20 77 77 SE 14 22 29.88 1012 10 16 0.00 0.00
10:53 am 10:53 Mostly Cloudy 78 25.6 68 20 71 71 SSE 13 20 29.91 1013 10 16 0.00 0.00
11:53 am 11:53 Mostly Cloudy 80 26.7 67 19.4 64 64 SE 12 19 29.91 1013 10 16 0.00 0.00
12:19 pm 12:19 Partly Cloudy 82 27.8 68 20 63 63 SE 12 19 29.85 1011 10 16 0.00 0.00
12:53 pm 12:53 Partly Cloudy 82 27.8 67 19.4 60 60 SSE 10 17 29.89 1012 10 16 0.00 0.00
1:53 pm 13:53 Mostly Cloudy 84 28.9 66 18.9 55 55 SSE 10 17 29.86 1011 10 16 0.00 0.00
2:53 pm 14:53 Mostly Cloudy 85 29.4 66 18.9 53 53 SE 10 17 29.83 1010 10 16 0.00 0.00
3:53 pm 15:53 Mostly Cloudy 89 31.7 66 18.9 47 47 SSE 12 19 29.80 1009 10 16 0.00 0.00
4:53 pm 16:53 Partly Cloudy 89 31.7 66 18.9 47 47 SSE 14 22 29.77 1008 10 16 0.00 0.00
5:53 pm 17:53 Sunny 88 31.1 66 18.9 48 48 SE 14 22 29.76 1008 10 16 0.00 0.00
6:53 pm 18:53 Sunny 86 30 65 18.3 49 49 SSE 15 24 29.76 1008 10 16 0.00 0.00
7:53 pm 19:53 Sunny 83 28.3 65 18.3 55 55 SE 9 15 29.78 1008 10 16 0.00 0.00
8:53 pm 20:53 Clear 80 26.7 65 18.3 60 60 SE 10 17 29.80 1009 10 16 0.00 0.00
9:53 pm 21:53 Clear 78 25.6 66 18.9 67 67 SE 15 24 29.81 1009 10 16 0.00 0.00
10:53 pm 22:53 Clear 77 25 66 18.9 69 69 SSE 15 24 29.82 1010 10 16 0.00 0.00
11:53 pm 23:53 Clear 75 23.9 66 18.9 74 74 SSE 13 20 29.82 1010 10 16 0.00 0.00

Powered by AerisWeather